Time,TemperatureF,DewpointF,PressureIn,WindDirection,WindDirectionDegrees,WindSpeedMPH,WindSpeedGustMPH,Humidity,HourlyPrecipIn,Conditions,Clouds,dailyrainin,SolarRadiationWatts/m^2,SoftwareType,DateUTC
2013-07-13 00:01:00,65.8,62.7,30.20,SE,133,0.0,5.0,90,0.00,,,0.00,0,HR-IXPWINDi_r2_v1.2.,2013-07-13 04:01:00,
2013-07-13 00:06:00,65.8,63.0,30.20,East,96,1.0,6.0,91,0.00,,,0.00,0,HR-IXPWINDi_r2_v1.2.,2013-07-13 04:06:00,
2013-07-13 00:11:00,65.7,62.9,30.20,ESE,119,2.0,6.0,91,0.00,,,0.00,0,HR-IXPWINDi_r2_v1.2.,2013-07-13 04:11:00,
2013-07-13 00:16:00,65.6,62.8,30.20,ESE,105,1.0,6.0,91,0.00,,,0.00,0,HR-IXPWINDi_r2_v1.2.,2013-07-13 04:16:00,
2013-07-13 00:21:00,65.4,62.6,30.20,East,96,3.0,6.0,91,0.00,,,0.00,0,HR-IXPWINDi_r2_v1.2.,2013-07-13 04:21:00,
2013-07-13 00:27:00,65.3,62.8,30.20,ESE,113,0.0,6.0,92,0.00,,,0.00,0,HR-IXPWINDi_r2_v1.2.,2013-07-13 04:27:00,
2013-07-13 00:32:00,65.3,63.2,30.20,ESE,113,0.0,3.0,93,0.00,,,0.00,0,HR-IXPWINDi_r2_v1.2.,2013-07-13 04:32:00,
2013-07-13 00:37:00,65.2,63.1,30.20,ENE,65,0.0,4.0,93,0.00,,,0.00,0,HR-IXPWINDi_r2_v1.2.,2013-07-13 04:37:00,
2013-07-13 00:42:00,65.1,63.0,30.20,East,84,0.0,4.0,93,0.00,,,0.00,0,HR-IXPWINDi_r2_v1.2.,2013-07-13 04:42:00,
2013-07-13 00:47:00,65.1,63.0,30.20,East,84,0.0,3.0,93,0.00,,,0.00,0,HR-IXPWINDi_r2_v1.2.,2013-07-13 04:47:00,
2013-07-13 00:52:00,65.1,63.0,30.20,East,82,1.0,5.0,93,0.00,,,0.00,0,HR-IXPWINDi_r2_v1.2.,2013-07-13 04:52:00,
2013-07-13 00:57:00,65.1,63.0,30.21,East,82,2.0,5.0,93,0.00,,,0.00,0,HR-IXPWINDi_r2_v1.2.,2013-07-13 04:57:00,
2013-07-13 01:03:00,65.1,63.3,30.21,NNE,30,3.0,4.0,94,0.00,,,0.00,0,HR-IXPWINDi_r2_v1.2.,2013-07-13 05:03:00,
2013-07-13 01:08:00,65.1,63.3,30.21,North,9,0.0,4.0,94,0.00,,,0.00,0,HR-IXPWINDi_r2_v1.2.,2013-07-13 05:08:00,
2013-07-13 01:13:00,65.1,63.3,30.20,NE,36,0.0,4.0,94,0.00,,,0.00,0,HR-IXPWINDi_r2_v1.2.,2013-07-13 05:13:00,
2013-07-13 01:18:00,65.1,63.3,30.20,NNE,24,3.0,5.0,94,0.00,,,0.00,0,HR-IXPWINDi_r2_v1.2.,2013-07-13 05:18:00,
2013-07-13 01:23:00,65.1,63.3,30.21,NNE,24,2.0,5.0,94,0.00,,,0.00,0,HR-IXPWINDi_r2_v1.2.,2013-07-13 05:23:00,
2013-07-13 01:28:00,65.2,63.4,30.21,NNE,24,1.0,4.0,94,0.00,,,0.00,0,HR-IXPWINDi_r2_v1.2.,2013-07-13 05:28:00,
2013-07-13 01:34:00,65.3,63.5,30.21,NNE,24,2.0,3.0,94,0.00,,,0.00,0,HR-IXPWINDi_r2_v1.2.,2013-07-13 05:34:00,
2013-07-13 01:39:00,65.4,63.6,30.20,NNE,24,3.0,4.0,94,0.00,,,0.00,0,HR-IXPWINDi_r2_v1.2.,2013-07-13 05:39:00,
2013-07-13 01:44:00,65.4,63.6,30.20,NE,54,3.0,5.0,94,0.00,,,0.00,0,HR-IXPWINDi_r2_v1.2.,2013-07-13 05:44:00,
2013-07-13 01:49:00,65.5,63.7,30.21,NE,34,2.0,5.0,94,0.00,,,0.00,0,HR-IXPWINDi_r2_v1.2.,2013-07-13 05:49:00,
2013-07-13 01:54:00,65.5,63.7,30.21,NE,38,3.0,5.0,94,0.00,,,0.00,0,HR-IXPWINDi_r2_v1.2.,2013-07-13 05:54:00,
2013-07-13 01:59:00,65.6,63.8,30.20,ENE,59,4.0,7.0,94,0.00,,,0.00,0,HR-IXPWINDi_r2_v1.2.,2013-07-13 05:59:00,
2013-07-13 02:04:00,65.6,63.8,30.20,NNE,28,4.0,7.0,94,0.00,,,0.00,0,HR-IXPWINDi_r2_v1.2.,2013-07-13 06:04:00,
2013-07-13 02:09:00,65.6,63.8,30.21,North,11,6.0,7.0,94,0.00,,,0.00,0,HR-IXPWINDi_r2_v1.2.,2013-07-13 06:09:00,
2013-07-13 02:15:00,65.6,63.8,30.21,NE,56,3.0,7.0,94,0.00,,,0.00,0,HR-IXPWINDi_r2_v1.2.,2013-07-13 06:15:00,
2013-07-13 02:20:00,65.6,63.8,30.21,NNE,26,2.0,7.0,94,0.00,,,0.00,0,HR-IXPWINDi_r2_v1.2.,2013-07-13 06:20:00,
2013-07-13 02:25:00,65.7,63.9,30.21,NE,40,3.0,5.0,94,0.00,,,0.00,0,HR-IXPWINDi_r2_v1.2.,2013-07-13 06:25:00,
2013-07-13 02:30:00,65.8,64.0,30.21,NE,40,2.0,5.0,94,0.00,,,0.00,0,HR-IXPWINDi_r2_v1.2.,2013-07-13 06:30:00,
2013-07-13 02:35:00,65.8,64.0,30.21,NE,54,3.0,5.0,94,0.00,,,0.00,0,HR-IXPWINDi_r2_v1.2.,2013-07-13 06:35:00,
2013-07-13 02:41:00,65.8,63.7,30.21,NNE,22,4.0,5.0,93,0.00,,,0.00,0,HR-IXPWINDi_r2_v1.2.,2013-07-13 06:41:00,
2013-07-13 02:46:00,65.8,63.7,30.21,North,5,6.0,6.0,93,0.00,,,0.00,0,HR-IXPWINDi_r2_v1.2.,2013-07-13 06:46:00,
2013-07-13 02:51:00,65.9,63.8,30.21,NNE,15,5.0,7.0,93,0.00,,,0.00,0,HR-IXPWINDi_r2_v1.2.,2013-07-13 06:51:00,
2013-07-13 02:56:00,65.8,63.7,30.21,NNE,27,4.0,7.0,93,0.00,,,0.00,0,HR-IXPWINDi_r2_v1.2.,2013-07-13 06:56:00,
2013-07-13 03:01:00,65.8,63.7,30.21,NNE,26,4.0,8.0,93,0.00,,,0.00,0,HR-IXPWINDi_r2_v1.2.,2013-07-13 07:01:00,
2013-07-13 03:06:00,65.8,63.7,30.21,North,355,6.0,8.0,93,0.00,,,0.00,0,HR-IXPWINDi_r2_v1.2.,2013-07-13 07:06:00,
2013-07-13 03:12:00,65.8,63.7,30.21,NNE,24,3.0,8.0,93,0.00,,,0.00,0,HR-IXPWINDi_r2_v1.2.,2013-07-13 07:12:00,
2013-07-13 03:17:00,65.8,63.7,30.22,NNE,26,7.0,8.0,93,0.00,,,0.00,0,HR-IXPWINDi_r2_v1.2.,2013-07-13 07:17:00,
2013-07-13 03:22:00,65.8,63.7,30.22,North,11,3.0,10.0,93,0.00,,,0.00,0,HR-IXPWINDi_r2_v1.2.,2013-07-13 07:22:00,
2013-07-13 03:27:00,65.8,63.7,30.22,NNE,26,6.0,10.0,93,0.00,,,0.00,0,HR-IXPWINDi_r2_v1.2.,2013-07-13 07:27:00,
2013-07-13 03:32:00,65.9,63.8,30.22,NE,48,3.0,9.0,93,0.00,,,0.00,0,HR-IXPWINDi_r2_v1.2.,2013-07-13 07:32:00,
2013-07-13 03:37:00,65.9,63.8,30.23,NNE,31,1.0,8.0,93,0.00,,,0.00,0,HR-IXPWINDi_r2_v1.2.,2013-07-13 07:37:00,
2013-07-13 03:43:00,65.9,63.4,30.23,NNE,33,8.0,11.0,92,0.00,,,0.00,0,HR-IXPWINDi_r2_v1.2.,2013-07-13 07:43:00,
2013-07-13 03:48:00,65.8,63.3,30.23,NNE,17,7.0,11.0,92,0.00,,,0.00,0,HR-IXPWINDi_r2_v1.2.,2013-07-13 07:48:00,
2013-07-13 03:53:00,65.8,63.3,30.23,NNE,19,5.0,10.0,92,0.00,,,0.00,0,HR-IXPWINDi_r2_v1.2.,2013-07-13 07:53:00,
2013-07-13 03:58:00,65.8,63.3,30.23,NE,35,4.0,9.0,92,0.00,,,0.00,0,HR-IXPWINDi_r2_v1.2.,2013-07-13 07:58:00,
2013-07-13 04:03:00,65.8,63.0,30.23,NE,40,5.0,7.0,91,0.00,,,0.00,0,HR-IXPWINDi_r2_v1.2.,2013-07-13 08:03:00,
2013-07-13 04:08:00,65.8,63.0,30.23,NNE,23,5.0,7.0,91,0.00,,,0.00,0,HR-IXPWINDi_r2_v1.2.,2013-07-13 08:08:00,
2013-07-13 04:13:00,65.8,63.0,30.23,NNE,22,4.0,7.0,91,0.00,,,0.00,0,HR-IXPWINDi_r2_v1.2.,2013-07-13 08:13:00,
2013-07-13 04:18:00,65.8,63.0,30.23,NNE,32,6.0,8.0,91,0.00,,,0.00,0,HR-IXPWINDi_r2_v1.2.,2013-07-13 08:18:00,
2013-07-13 04:24:00,65.8,62.7,30.23,NNE,29,6.0,9.0,90,0.00,,,0.00,0,HR-IXPWINDi_r2_v1.2.,2013-07-13 08:24:00,
2013-07-13 04:29:00,65.9,62.8,30.23,NE,37,4.0,9.0,90,0.00,,,0.00,0,HR-IXPWINDi_r2_v1.2.,2013-07-13 08:29:00,
2013-07-13 04:34:00,65.9,62.8,30.23,NNE,21,3.0,8.0,90,0.00,,,0.00,0,HR-IXPWINDi_r2_v1.2.,2013-07-13 08:34:00,
2013-07-13 04:39:00,65.9,62.8,30.24,NNE,30,4.0,8.0,90,0.00,,,0.00,0,HR-IXPWINDi_r2_v1.2.,2013-07-13 08:39:00,
2013-07-13 04:44:00,65.9,62.8,30.23,NNE,28,6.0,9.0,90,0.00,,,0.00,0,HR-IXPWINDi_r2_v1.2.,2013-07-13 08:44:00,
2013-07-13 04:49:00,65.9,62.8,30.24,NE,35,3.0,9.0,90,0.00,,,0.00,0,HR-IXPWINDi_r2_v1.2.,2013-07-13 08:49:00,
2013-07-13 04:54:00,65.9,62.8,30.24,NNE,25,7.0,7.0,90,0.00,,,0.00,0,HR-IXPWINDi_r2_v1.2.,2013-07-13 08:54:00,
2013-07-13 05:00:00,65.9,62.8,30.24,NNE,32,8.0,8.0,90,0.00,,,0.00,0,HR-IXPWINDi_r2_v1.2.,2013-07-13 09:00:00,
2013-07-13 05:05:00,66.0,62.6,30.24,NNE,12,4.0,10.0,89,0.00,,,0.00,0,HR-IXPWINDi_r2_v1.2.,2013-07-13 09:05:00,
2013-07-13 05:10:00,66.0,62.9,30.24,NE,46,4.0,10.0,90,0.00,,,0.00,0,HR-IXPWINDi_r2_v1.2.,2013-07-13 09:10:00,
2013-07-13 05:15:00,66.0,62.6,30.25,NE,36,3.0,11.0,89,0.00,,,0.00,0,HR-IXPWINDi_r2_v1.2.,2013-07-13 09:15:00,
2013-07-13 05:20:00,66.1,62.7,30.25,NE,37,6.0,11.0,89,0.00,,,0.00,0,HR-IXPWINDi_r2_v1.2.,2013-07-13 09:20:00,
2013-07-13 05:25:00,66.0,62.6,30.25,NE,42,4.0,9.0,89,0.00,,,0.00,0,HR-IXPWINDi_r2_v1.2.,2013-07-13 09:25:00,
2013-07-13 05:30:00,66.1,62.7,30.25,NE,36,4.0,9.0,89,0.00,,,0.00,0,HR-IXPWINDi_r2_v1.2.,2013-07-13 09:30:00,
2013-07-13 05:36:00,66.1,62.7,30.25,North,5,4.0,8.0,89,0.00,,,0.00,0,HR-IXPWINDi_r2_v1.2.,2013-07-13 09:36:00,
2013-07-13 05:41:00,66.1,62.4,30.25,NNE,33,5.0,8.0,88,0.00,,,0.00,5,HR-IXPWINDi_r2_v1.2.,2013-07-13 09:41:00,
2013-07-13 05:46:00,66.2,62.5,30.25,NNE,31,6.0,9.0,88,0.00,,,0.00,7,HR-IXPWINDi_r2_v1.2.,2013-07-13 09:46:00,
2013-07-13 05:51:00,66.2,62.5,30.26,NNE,22,5.0,9.0,88,0.00,,,0.00,11,HR-IXPWINDi_r2_v1.2.,2013-07-13 09:51:00,
2013-07-13 05:57:00,66.2,62.5,30.26,NNE,31,4.0,8.0,88,0.00,,,0.00,14,HR-IXPWINDi_r2_v1.2.,2013-07-13 09:57:00,
2013-07-13 06:02:00,66.2,62.5,30.26,NNE,30,5.0,8.0,88,0.00,,,0.00,14,HR-IXPWINDi_r2_v1.2.,2013-07-13 10:02:00,
2013-07-13 06:07:00,66.3,62.6,30.26,NE,37,5.0,8.0,88,0.00,,,0.00,14,HR-IXPWINDi_r2_v1.2.,2013-07-13 10:07:00,
2013-07-13 06:12:00,66.3,62.2,30.26,NNE,30,4.0,7.0,87,0.00,,,0.00,12,HR-IXPWINDi_r2_v1.2.,2013-07-13 10:12:00,
2013-07-13 06:17:00,66.4,62.3,30.26,NE,49,5.0,7.0,87,0.00,,,0.00,12,HR-IXPWINDi_r2_v1.2.,2013-07-13 10:17:00,
2013-07-13 06:23:00,66.4,62.3,30.26,NNE,26,9.0,9.0,87,0.00,,,0.00,12,HR-IXPWINDi_r2_v1.2.,2013-07-13 10:23:00,
2013-07-13 06:28:00,66.4,62.0,30.26,NE,34,4.0,9.0,86,0.00,,,0.00,11,HR-IXPWINDi_r2_v1.2.,2013-07-13 10:28:00,
2013-07-13 06:33:00,66.4,62.0,30.26,ENE,58,8.0,9.0,86,0.00,,,0.00,11,HR-IXPWINDi_r2_v1.2.,2013-07-13 10:33:00,
2013-07-13 06:38:00,66.4,61.7,30.26,NNE,19,7.0,9.0,85,0.00,,,0.00,14,HR-IXPWINDi_r2_v1.2.,2013-07-13 10:38:00,
2013-07-13 06:44:00,66.4,61.7,30.26,NNE,32,2.0,9.0,85,0.00,,,0.00,18,HR-IXPWINDi_r2_v1.2.,2013-07-13 10:44:00,
2013-07-13 06:49:00,66.5,61.8,30.26,NE,54,4.0,7.0,85,0.00,,,0.00,23,HR-IXPWINDi_r2_v1.2.,2013-07-13 10:49:00,
2013-07-13 06:54:00,66.5,61.8,30.26,NNE,21,4.0,7.0,85,0.00,,,0.00,33,HR-IXPWINDi_r2_v1.2.,2013-07-13 10:54:00,
2013-07-13 06:59:00,66.6,61.9,30.26,NE,55,5.0,8.0,85,0.00,,,0.00,44,HR-IXPWINDi_r2_v1.2.,2013-07-13 10:59:00,
2013-07-13 07:04:00,66.7,61.6,30.26,NE,51,4.0,10.0,84,0.00,,,0.00,56,HR-IXPWINDi_r2_v1.2.,2013-07-13 11:04:00,
2013-07-13 07:09:00,66.8,62.1,30.27,NE,34,4.0,10.0,85,0.00,,,0.00,60,HR-IXPWINDi_r2_v1.2.,2013-07-13 11:09:00,
2013-07-13 07:15:00,66.9,61.8,30.27,NNE,33,4.0,7.0,84,0.00,,,0.00,49,HR-IXPWINDi_r2_v1.2.,2013-07-13 11:15:00,
2013-07-13 07:20:00,67.0,61.9,30.27,North,5,5.0,9.0,84,0.00,,,0.00,58,HR-IXPWINDi_r2_v1.2.,2013-07-13 11:20:00,
2013-07-13 07:25:00,67.0,61.9,30.27,NE,40,5.0,9.0,84,0.00,,,0.00,70,HR-IXPWINDi_r2_v1.2.,2013-07-13 11:25:00,
2013-07-13 07:30:00,67.1,62.0,30.27,NNE,28,4.0,9.0,84,0.00,,,0.00,69,HR-IXPWINDi_r2_v1.2.,2013-07-13 11:30:00,
2013-07-13 07:35:00,67.1,62.0,30.27,ENE,61,5.0,12.0,84,0.00,,,0.00,84,HR-IXPWINDi_r2_v1.2.,2013-07-13 11:35:00,
2013-07-13 07:40:00,67.2,61.8,30.28,NNE,27,6.0,12.0,83,0.00,,,0.00,76,HR-IXPWINDi_r2_v1.2.,2013-07-13 11:40:00,
2013-07-13 07:45:00,67.3,61.9,30.28,NNE,26,9.0,10.0,83,0.00,,,0.00,95,HR-IXPWINDi_r2_v1.2.,2013-07-13 11:45:00,
2013-07-13 07:51:00,67.4,61.6,30.28,NNE,26,5.0,10.0,82,0.00,,,0.00,102,HR-IXPWINDi_r2_v1.2.,2013-07-13 11:51:00,
2013-07-13 07:56:00,67.6,61.8,30.28,ENE,65,10.0,10.0,82,0.00,,,0.00,116,HR-IXPWINDi_r2_v1.2.,2013-07-13 11:56:00,
2013-07-13 08:01:00,67.8,62.0,30.28,NE,39,4.0,10.0,82,0.00,,,0.00,130,HR-IXPWINDi_r2_v1.2.,2013-07-13 12:01:00,
2013-07-13 08:06:00,68.0,62.2,30.29,NE,56,5.0,11.0,82,0.00,,,0.00,120,HR-IXPWINDi_r2_v1.2.,2013-07-13 12:06:00,
2013-07-13 08:11:00,68.0,62.2,30.29,ENE,72,9.0,12.0,82,0.00,,,0.00,128,HR-IXPWINDi_r2_v1.2.,2013-07-13 12:11:00,
2013-07-13 08:16:00,68.1,62.7,30.29,NNE,28,4.0,12.0,83,0.00,,,0.00,162,HR-IXPWINDi_r2_v1.2.,2013-07-13 12:16:00,
2013-07-13 08:22:00,68.3,62.9,30.29,NE,45,3.0,12.0,83,0.00,,,0.00,179,HR-IXPWINDi_r2_v1.2.,2013-07-13 12:22:00,
2013-07-13 08:27:00,68.4,63.0,30.30,NE,38,3.0,9.0,83,0.00,,,0.00,135,HR-IXPWINDi_r2_v1.2.,2013-07-13 12:27:00,
2013-07-13 08:32:00,68.4,63.3,30.30,ENE,58,1.0,9.0,84,0.00,,,0.00,74,HR-IXPWINDi_r2_v1.2.,2013-07-13 12:32:00,
2013-07-13 08:37:00,68.3,63.2,30.30,East,80,5.0,9.0,84,0.00,,,0.00,79,HR-IXPWINDi_r2_v1.2.,2013-07-13 12:37:00,
2013-07-13 08:43:00,68.0,63.3,30.30,ENE,63,7.0,10.0,85,0.00,,,0.00,153,HR-IXPWINDi_r2_v1.2.,2013-07-13 12:43:00,
2013-07-13 08:48:00,68.1,63.7,30.30,NNE,30,1.0,10.0,86,0.00,,,0.00,183,HR-IXPWINDi_r2_v1.2.,2013-07-13 12:48:00,
2013-07-13 08:53:00,68.3,63.9,30.30,ENE,69,2.0,7.0,86,0.00,,,0.00,176,HR-IXPWINDi_r2_v1.2.,2013-07-13 12:53:00,
2013-07-13 08:58:00,68.4,64.0,30.30,NE,54,8.0,9.0,86,0.00,,,0.00,185,HR-IXPWINDi_r2_v1.2.,2013-07-13 12:58:00,
2013-07-13 09:03:00,68.4,64.0,30.30,ENE,60,8.0,9.0,86,0.00,,,0.00,178,HR-IXPWINDi_r2_v1.2.,2013-07-13 13:03:00,
2013-07-13 09:09:00,68.2,64.1,30.30,ENE,78,3.0,9.0,87,0.00,,,0.00,211,HR-IXPWINDi_r2_v1.2.,2013-07-13 13:09:00,
2013-07-13 09:14:00,68.5,64.4,30.29,NE,43,5.0,9.0,87,0.00,,,0.00,345,HR-IXPWINDi_r2_v1.2.,2013-07-13 13:14:00,
2013-07-13 09:19:00,68.9,64.8,30.29,ESE,105,2.0,9.0,87,0.00,,,0.00,308,HR-IXPWINDi_r2_v1.2.,2013-07-13 13:19:00,
2013-07-13 09:24:00,70.3,65.2,30.29,ESE,103,2.0,9.0,84,0.00,,,0.00,415,HR-IXPWINDi_r2_v1.2.,2013-07-13 13:24:00,
2013-07-13 09:30:00,69.7,64.6,30.30,East,90,3.0,9.0,84,0.00,,,0.00,309,HR-IXPWINDi_r2_v1.2.,2013-07-13 13:30:00,
2013-07-13 09:35:00,69.4,64.6,30.30,ENE,72,3.0,9.0,85,0.00,,,0.00,267,HR-IXPWINDi_r2_v1.2.,2013-07-13 13:35:00,
2013-07-13 09:40:00,69.4,64.3,30.30,ENE,63,0.0,8.0,84,0.00,,,0.00,183,HR-IXPWINDi_r2_v1.2.,2013-07-13 13:40:00,
2013-07-13 09:45:00,69.1,64.3,30.30,ENE,71,0.0,9.0,85,0.00,,,0.00,155,HR-IXPWINDi_r2_v1.2.,2013-07-13 13:45:00,
2013-07-13 09:50:00,69.3,64.5,30.29,ENE,57,2.0,9.0,85,0.00,,,0.00,269,HR-IXPWINDi_r2_v1.2.,2013-07-13 13:50:00,
2013-07-13 09:55:00,69.3,64.5,30.30,ENE,57,4.0,7.0,85,0.00,,,0.00,313,HR-IXPWINDi_r2_v1.2.,2013-07-13 13:55:00,
2013-07-13 10:00:00,69.6,64.1,30.30,East,82,5.0,7.0,83,0.00,,,0.00,360,HR-IXPWINDi_r2_v1.2.,2013-07-13 14:00:00,
2013-07-13 10:06:00,70.1,64.6,30.30,ENE,71,5.0,8.0,83,0.00,,,0.00,329,HR-IXPWINDi_r2_v1.2.,2013-07-13 14:06:00,
2013-07-13 10:11:00,69.7,64.6,30.30,NE,39,4.0,8.0,84,0.00,,,0.00,311,HR-IXPWINDi_r2_v1.2.,2013-07-13 14:11:00,
2013-07-13 10:16:00,70.2,64.7,30.29,ENE,68,5.0,7.0,83,0.00,,,0.00,438,HR-IXPWINDi_r2_v1.2.,2013-07-13 14:16:00,
2013-07-13 10:21:00,70.2,64.7,30.29,NE,46,6.0,8.0,83,0.00,,,0.00,496,HR-IXPWINDi_r2_v1.2.,2013-07-13 14:21:00,
2013-07-13 10:26:00,71.2,65.0,30.30,ENE,68,4.0,8.0,81,0.00,,,0.00,336,HR-IXPWINDi_r2_v1.2.,2013-07-13 14:26:00,
2013-07-13 10:31:00,70.6,65.1,30.30,NE,51,4.0,8.0,83,0.00,,,0.00,434,HR-IXPWINDi_r2_v1.2.,2013-07-13 14:31:00,
2013-07-13 10:36:00,70.9,64.7,30.30,ENE,69,3.0,9.0,81,0.00,,,0.00,490,HR-IXPWINDi_r2_v1.2.,2013-07-13 14:36:00,
2013-07-13 10:42:00,71.1,65.3,30.30,NE,54,5.0,9.0,82,0.00,,,0.00,475,HR-IXPWINDi_r2_v1.2.,2013-07-13 14:42:00,
2013-07-13 10:47:00,70.6,64.4,30.31,East,83,5.0,9.0,81,0.00,,,0.00,413,HR-IXPWINDi_r2_v1.2.,2013-07-13 14:47:00,
2013-07-13 10:52:00,70.6,64.8,30.31,ENE,61,7.0,9.0,82,0.00,,,0.00,394,HR-IXPWINDi_r2_v1.2.,2013-07-13 14:52:00,
2013-07-13 10:57:00,70.9,65.1,30.31,ENE,69,0.0,7.0,82,0.00,,,0.00,346,HR-IXPWINDi_r2_v1.2.,2013-07-13 14:57:00,
2013-07-13 11:02:00,71.1,64.9,30.30,ENE,66,4.0,7.0,81,0.00,,,0.00,232,HR-IXPWINDi_r2_v1.2.,2013-07-13 15:02:00,
2013-07-13 11:07:00,70.9,65.4,30.31,ENE,64,5.0,7.0,83,0.00,,,0.00,193,HR-IXPWINDi_r2_v1.2.,2013-07-13 15:07:00,
2013-07-13 11:12:00,70.8,65.0,30.31,East,79,5.0,7.0,82,0.00,,,0.00,167,HR-IXPWINDi_r2_v1.2.,2013-07-13 15:12:00,
2013-07-13 11:17:00,70.6,65.1,30.31,ENE,61,3.0,7.0,83,0.00,,,0.00,178,HR-IXPWINDi_r2_v1.2.,2013-07-13 15:17:00,
2013-07-13 11:23:00,70.0,64.5,30.31,ENE,61,4.0,8.0,83,0.00,,,0.00,190,HR-IXPWINDi_r2_v1.2.,2013-07-13 15:23:00,
2013-07-13 11:28:00,70.2,65.4,30.31,NE,43,2.0,8.0,85,0.00,,,0.00,241,HR-IXPWINDi_r2_v1.2.,2013-07-13 15:28:00,
2013-07-13 11:33:00,70.6,65.1,30.31,NNE,31,2.0,7.0,83,0.00,,,0.00,185,HR-IXPWINDi_r2_v1.2.,2013-07-13 15:33:00,
2013-07-13 11:38:00,70.2,64.7,30.31,East,92,3.0,9.0,83,0.00,,,0.00,134,HR-IXPWINDi_r2_v1.2.,2013-07-13 15:38:00,
2013-07-13 11:43:00,69.6,64.1,30.31,ENE,64,3.0,9.0,83,0.00,,,0.00,239,HR-IXPWINDi_r2_v1.2.,2013-07-13 15:43:00,
2013-07-13 11:48:00,69.9,64.8,30.31,East,80,7.0,8.0,84,0.00,,,0.00,239,HR-IXPWINDi_r2_v1.2.,2013-07-13 15:48:00,
2013-07-13 11:53:00,69.4,64.3,30.31,NE,50,7.0,9.0,84,0.00,,,0.00,255,HR-IXPWINDi_r2_v1.2.,2013-07-13 15:53:00,
2013-07-13 11:59:00,69.4,64.6,30.31,NE,55,4.0,9.0,85,0.00,,,0.00,227,HR-IXPWINDi_r2_v1.2.,2013-07-13 15:59:00,
2013-07-13 12:04:00,69.3,64.9,30.31,NE,51,5.0,10.0,86,0.00,,,0.00,174,HR-IXPWINDi_r2_v1.2.,2013-07-13 16:04:00,
2013-07-13 12:09:00,69.9,65.1,30.31,NE,55,5.0,10.0,85,0.00,,,0.00,209,HR-IXPWINDi_r2_v1.2.,2013-07-13 16:09:00,
2013-07-13 12:14:00,70.0,65.2,30.31,ENE,74,2.0,9.0,85,0.00,,,0.00,220,HR-IXPWINDi_r2_v1.2.,2013-07-13 16:14:00,
2013-07-13 12:19:00,69.7,64.9,30.31,East,90,2.0,9.0,85,0.00,,,0.00,272,HR-IXPWINDi_r2_v1.2.,2013-07-13 16:19:00,
2013-07-13 12:25:00,70.2,65.4,30.31,East,86,6.0,9.0,85,0.00,,,0.00,211,HR-IXPWINDi_r2_v1.2.,2013-07-13 16:25:00,
2013-07-13 12:30:00,70.4,65.6,30.31,East,84,5.0,7.0,85,0.00,,,0.00,454,HR-IXPWINDi_r2_v1.2.,2013-07-13 16:30:00,
2013-07-13 12:35:00,69.9,65.1,30.31,NE,34,8.0,11.0,85,0.00,,,0.00,506,HR-IXPWINDi_r2_v1.2.,2013-07-13 16:35:00,
2013-07-13 12:40:00,70.4,65.6,30.31,NE,35,3.0,12.0,85,0.00,,,0.00,497,HR-IXPWINDi_r2_v1.2.,2013-07-13 16:40:00,
2013-07-13 12:45:00,70.6,65.1,30.31,ENE,60,7.0,12.0,83,0.00,,,0.00,482,HR-IXPWINDi_r2_v1.2.,2013-07-13 16:45:00,
2013-07-13 12:50:00,71.0,66.2,30.31,East,80,1.0,10.0,85,0.00,,,0.00,490,HR-IXPWINDi_r2_v1.2.,2013-07-13 16:50:00,
2013-07-13 12:56:00,71.4,65.6,30.31,East,94,5.0,10.0,82,0.00,,,0.00,408,HR-IXPWINDi_r2_v1.2.,2013-07-13 16:56:00,
2013-07-13 13:01:00,71.1,65.6,30.31,SE,141,4.0,8.0,83,0.00,,,0.00,343,HR-IXPWINDi_r2_v1.2.,2013-07-13 17:01:00,
2013-07-13 13:06:00,70.2,65.1,30.31,SE,125,8.0,9.0,84,0.00,,,0.00,325,HR-IXPWINDi_r2_v1.2.,2013-07-13 17:06:00,
2013-07-13 13:11:00,70.2,65.8,30.31,ENE,76,4.0,10.0,86,0.00,,,0.00,367,HR-IXPWINDi_r2_v1.2.,2013-07-13 17:11:00,
2013-07-13 13:16:00,70.5,65.4,30.31,East,92,5.0,10.0,84,0.00,,,0.00,334,HR-IXPWINDi_r2_v1.2.,2013-07-13 17:16:00,
2013-07-13 13:21:00,70.3,65.8,30.31,NE,46,1.0,8.0,86,0.00,,,0.00,357,HR-IXPWINDi_r2_v1.2.,2013-07-13 17:21:00,
2013-07-13 13:27:00,72.1,66.6,30.31,East,94,7.0,9.0,83,0.00,,,0.00,357,HR-IXPWINDi_r2_v1.2.,2013-07-13 17:27:00,
2013-07-13 13:32:00,71.0,65.2,30.31,East,86,8.0,9.0,82,0.00,,,0.00,339,HR-IXPWINDi_r2_v1.2.,2013-07-13 17:32:00,
2013-07-13 13:37:00,69.9,64.8,30.31,East,80,2.0,9.0,84,0.00,,,0.00,378,HR-IXPWINDi_r2_v1.2.,2013-07-13 17:37:00,
2013-07-13 13:42:00,69.6,64.8,30.31,East,87,7.0,10.0,85,0.00,,,0.00,441,HR-IXPWINDi_r2_v1.2.,2013-07-13 17:42:00,
2013-07-13 13:47:00,70.7,65.9,30.31,ENE,60,5.0,10.0,85,0.00,,,0.00,399,HR-IXPWINDi_r2_v1.2.,2013-07-13 17:47:00,
2013-07-13 13:52:00,71.3,65.8,30.31,ENE,71,8.0,11.0,83,0.00,,,0.00,466,HR-IXPWINDi_r2_v1.2.,2013-07-13 17:52:00,
2013-07-13 13:58:00,70.7,65.6,30.30,ENE,68,5.0,11.0,84,0.00,,,0.00,527,HR-IXPWINDi_r2_v1.2.,2013-07-13 17:58:00,
2013-07-13 14:03:00,70.6,65.5,30.30,ENE,61,8.0,11.0,84,0.00,,,0.00,598,HR-IXPWINDi_r2_v1.2.,2013-07-13 18:03:00,
2013-07-13 14:08:00,71.7,66.2,30.30,NNE,32,6.0,11.0,83,0.00,,,0.00,756,HR-IXPWINDi_r2_v1.2.,2013-07-13 18:08:00,
2013-07-13 14:13:00,72.2,65.6,30.30,NE,51,7.0,11.0,80,0.00,,,0.00,506,HR-IXPWINDi_r2_v1.2.,2013-07-13 18:13:00,
2013-07-13 14:18:00,71.3,65.5,30.31,NE,53,7.0,11.0,82,0.00,,,0.00,673,HR-IXPWINDi_r2_v1.2.,2013-07-13 18:18:00,
2013-07-13 14:24:00,73.1,66.5,30.31,ENE,65,4.0,10.0,80,0.00,,,0.00,773,HR-IXPWINDi_r2_v1.2.,2013-07-13 18:24:00,
2013-07-13 14:29:00,74.1,66.4,30.31,East,85,3.0,9.0,77,0.00,,,0.00,534,HR-IXPWINDi_r2_v1.2.,2013-07-13 18:29:00,
2013-07-13 14:34:00,73.2,66.6,30.31,NE,52,4.0,8.0,80,0.00,,,0.00,448,HR-IXPWINDi_r2_v1.2.,2013-07-13 18:34:00,
2013-07-13 14:40:00,73.6,66.3,30.31,SE,126,3.0,8.0,78,0.00,,,0.00,399,HR-IXPWINDi_r2_v1.2.,2013-07-13 18:40:00,
2013-07-13 14:45:00,72.6,66.0,30.31,ESE,122,1.0,8.0,80,0.00,,,0.00,564,HR-IXPWINDi_r2_v1.2.,2013-07-13 18:45:00,
2013-07-13 14:50:00,73.1,66.9,30.31,NE,51,3.0,7.0,81,0.00,,,0.00,538,HR-IXPWINDi_r2_v1.2.,2013-07-13 18:50:00,
2013-07-13 14:55:00,74.1,66.7,30.31,East,81,6.0,7.0,78,0.00,,,0.00,591,HR-IXPWINDi_r2_v1.2.,2013-07-13 18:55:00,
2013-07-13 15:00:00,73.8,66.8,30.31,East,79,5.0,10.0,79,0.00,,,0.00,577,HR-IXPWINDi_r2_v1.2.,2013-07-13 19:00:00,
2013-07-13 15:05:00,73.6,66.3,30.30,ENE,61,8.0,10.0,78,0.00,,,0.00,524,HR-IXPWINDi_r2_v1.2.,2013-07-13 19:05:00,
2013-07-13 15:11:00,72.3,66.1,30.30,NNE,24,5.0,10.0,81,0.00,,,0.00,543,HR-IXPWINDi_r2_v1.2.,2013-07-13 19:11:00,
2013-07-13 15:16:00,72.4,66.2,30.30,ENE,65,7.0,10.0,81,0.00,,,0.00,585,HR-IXPWINDi_r2_v1.2.,2013-07-13 19:16:00,
2013-07-13 15:21:00,74.0,67.4,30.30,NE,55,2.0,9.0,80,0.00,,,0.00,499,HR-IXPWINDi_r2_v1.2.,2013-07-13 19:21:00,
2013-07-13 15:26:00,74.9,67.5,30.30,East,92,5.0,9.0,78,0.00,,,0.00,615,HR-IXPWINDi_r2_v1.2.,2013-07-13 19:26:00,
2013-07-13 15:31:00,73.6,67.0,30.30,ESE,115,5.0,9.0,80,0.00,,,0.00,454,HR-IXPWINDi_r2_v1.2.,2013-07-13 19:31:00,
2013-07-13 15:37:00,71.6,65.4,30.30,ESE,116,4.0,9.0,81,0.00,,,0.00,436,HR-IXPWINDi_r2_v1.2.,2013-07-13 19:37:00,
2013-07-13 15:42:00,71.0,65.9,30.30,ENE,59,3.0,9.0,84,0.00,,,0.00,429,HR-IXPWINDi_r2_v1.2.,2013-07-13 19:42:00,
2013-07-13 15:47:00,71.1,65.6,30.30,East,101,7.0,9.0,83,0.00,,,0.00,381,HR-IXPWINDi_r2_v1.2.,2013-07-13 19:47:00,
2013-07-13 15:52:00,70.4,65.6,30.30,NE,50,3.0,9.0,85,0.00,,,0.00,366,HR-IXPWINDi_r2_v1.2.,2013-07-13 19:52:00,
2013-07-13 15:57:00,70.7,66.2,30.30,East,91,8.0,9.0,86,0.00,,,0.00,404,HR-IXPWINDi_r2_v1.2.,2013-07-13 19:57:00,
2013-07-13 16:02:00,70.4,66.3,30.30,ENE,64,3.0,10.0,87,0.00,,,0.00,343,HR-IXPWINDi_r2_v1.2.,2013-07-13 20:02:00,
2013-07-13 16:07:00,70.9,66.1,30.30,ESE,111,8.0,10.0,85,0.00,,,0.00,475,HR-IXPWINDi_r2_v1.2.,2013-07-13 20:07:00,
2013-07-13 16:12:00,70.3,65.8,30.29,SE,132,6.0,9.0,86,0.00,,,0.00,313,HR-IXPWINDi_r2_v1.2.,2013-07-13 20:12:00,
2013-07-13 16:17:00,70.2,66.1,30.29,East,101,6.0,9.0,87,0.00,,,0.00,371,HR-IXPWINDi_r2_v1.2.,2013-07-13 20:17:00,
2013-07-13 16:23:00,70.2,66.1,30.29,ESE,109,8.0,10.0,87,0.00,,,0.00,318,HR-IXPWINDi_r2_v1.2.,2013-07-13 20:23:00,
2013-07-13 16:28:00,70.7,66.6,30.30,SE,140,0.0,10.0,87,0.00,,,0.00,708,HR-IXPWINDi_r2_v1.2.,2013-07-13 20:28:00,
2013-07-13 16:33:00,71.7,66.9,30.30,SE,139,1.0,8.0,85,0.00,,,0.00,534,HR-IXPWINDi_r2_v1.2.,2013-07-13 20:33:00,
2013-07-13 16:38:00,72.1,66.6,30.30,SE,146,5.0,8.0,83,0.00,,,0.00,689,HR-IXPWINDi_r2_v1.2.,2013-07-13 20:38:00,
2013-07-13 16:43:00,71.8,66.3,30.30,ESE,114,4.0,8.0,83,0.00,,,0.00,408,HR-IXPWINDi_r2_v1.2.,2013-07-13 20:43:00,
2013-07-13 16:48:00,71.3,66.2,30.30,ESE,111,3.0,10.0,84,0.00,,,0.00,432,HR-IXPWINDi_r2_v1.2.,2013-07-13 20:48:00,
2013-07-13 16:54:00,70.6,66.1,30.29,SE,140,2.0,10.0,86,0.00,,,0.00,599,HR-IXPWINDi_r2_v1.2.,2013-07-13 20:54:00,
2013-07-13 16:59:00,71.6,66.8,30.29,ENE,76,1.0,8.0,85,0.00,,,0.00,346,HR-IXPWINDi_r2_v1.2.,2013-07-13 20:59:00,
2013-07-13 17:04:00,71.1,66.6,30.29,ENE,71,3.0,8.0,86,0.00,,,0.00,367,HR-IXPWINDi_r2_v1.2.,2013-07-13 21:04:00,
2013-07-13 17:10:00,70.4,65.9,30.29,East,82,7.0,8.0,86,0.00,,,0.00,301,HR-IXPWINDi_r2_v1.2.,2013-07-13 21:10:00,
2013-07-13 17:15:00,70.2,66.1,30.29,East,101,6.0,10.0,87,0.00,,,0.00,218,HR-IXPWINDi_r2_v1.2.,2013-07-13 21:15:00,
2013-07-13 17:20:00,69.5,65.7,30.29,ENE,59,0.0,10.0,88,0.00,,,0.00,362,HR-IXPWINDi_r2_v1.2.,2013-07-13 21:20:00,
2013-07-13 17:25:00,70.2,66.4,30.29,SE,126,3.0,8.0,88,0.00,,,0.00,220,HR-IXPWINDi_r2_v1.2.,2013-07-13 21:25:00,
2013-07-13 17:30:00,70.7,66.6,30.29,NE,39,1.0,8.0,87,0.00,,,0.00,183,HR-IXPWINDi_r2_v1.2.,2013-07-13 21:30:00,
2013-07-13 17:35:00,70.4,65.9,30.29,ESE,105,4.0,8.0,86,0.00,,,0.00,163,HR-IXPWINDi_r2_v1.2.,2013-07-13 21:35:00,
2013-07-13 17:41:00,70.2,66.4,30.29,ESE,120,1.0,7.0,88,0.00,,,0.00,169,HR-IXPWINDi_r2_v1.2.,2013-07-13 21:41:00,
2013-07-13 17:46:00,69.9,66.1,30.29,East,101,6.0,7.0,88,0.00,,,0.00,176,HR-IXPWINDi_r2_v1.2.,2013-07-13 21:46:00,
2013-07-13 17:51:00,69.1,65.7,30.29,East,82,6.0,7.0,89,0.00,,,0.00,179,HR-IXPWINDi_r2_v1.2.,2013-07-13 21:51:00,
2013-07-13 17:56:00,69.4,66.3,30.29,East,88,0.0,7.0,90,0.00,,,0.00,107,HR-IXPWINDi_r2_v1.2.,2013-07-13 21:56:00,
2013-07-13 18:01:00,69.4,66.3,30.29,ESE,113,0.0,7.0,90,0.00,,,0.00,76,HR-IXPWINDi_r2_v1.2.,2013-07-13 22:01:00,
2013-07-13 18:07:00,69.7,66.2,30.29,ENE,75,2.0,5.0,89,0.00,,,0.00,70,HR-IXPWINDi_r2_v1.2.,2013-07-13 22:07:00,
2013-07-13 18:12:00,69.1,66.0,30.29,ESE,115,4.0,5.0,90,0.00,,,0.00,102,HR-IXPWINDi_r2_v1.2.,2013-07-13 22:12:00,
2013-07-13 18:17:00,68.6,65.5,30.30,ESE,104,4.0,7.0,90,0.00,,,0.00,97,HR-IXPWINDi_r2_v1.2.,2013-07-13 22:17:00,
2013-07-13 18:22:00,68.5,65.7,30.29,East,98,2.0,7.0,91,0.00,,,0.00,90,HR-IXPWINDi_r2_v1.2.,2013-07-13 22:22:00,
2013-07-13 18:28:00,68.3,65.5,30.29,ESE,103,3.0,5.0,91,0.00,,,0.00,76,HR-IXPWINDi_r2_v1.2.,2013-07-13 22:28:00,
2013-07-13 18:33:00,68.6,66.1,30.29,SE,130,1.0,5.0,92,0.00,,,0.00,86,HR-IXPWINDi_r2_v1.2.,2013-07-13 22:33:00,
2013-07-13 18:38:00,68.9,66.4,30.30,South,178,0.0,4.0,92,0.00,,,0.00,72,HR-IXPWINDi_r2_v1.2.,2013-07-13 22:38:00,
2013-07-13 18:43:00,69.0,66.2,30.30,SSE,157,0.0,3.0,91,0.00,,,0.00,62,HR-IXPWINDi_r2_v1.2.,2013-07-13 22:43:00,
2013-07-13 18:48:00,68.7,65.9,30.30,SSE,161,1.0,6.0,91,0.00,,,0.00,53,HR-IXPWINDi_r2_v1.2.,2013-07-13 22:48:00,
2013-07-13 18:53:00,68.7,66.2,30.30,SSE,156,1.0,6.0,92,0.00,,,0.00,58,HR-IXPWINDi_r2_v1.2.,2013-07-13 22:53:00,
2013-07-13 18:58:00,68.7,66.2,30.30,SE,126,0.0,5.0,92,0.00,,,0.00,70,HR-IXPWINDi_r2_v1.2.,2013-07-13 22:58:00,
2013-07-13 19:04:00,68.4,65.9,30.30,SE,137,2.0,6.0,92,0.00,,,0.00,69,HR-IXPWINDi_r2_v1.2.,2013-07-13 23:04:00,
2013-07-13 19:09:00,68.2,65.7,30.30,ESE,117,3.0,6.0,92,0.00,,,0.00,47,HR-IXPWINDi_r2_v1.2.,2013-07-13 23:09:00,
2013-07-13 19:14:00,68.2,66.0,30.30,East,97,0.0,5.0,93,0.00,,,0.00,44,HR-IXPWINDi_r2_v1.2.,2013-07-13 23:14:00,
2013-07-13 19:19:00,68.2,66.0,30.31,SE,131,0.0,4.0,93,0.00,,,0.00,37,HR-IXPWINDi_r2_v1.2.,2013-07-13 23:19:00,
2013-07-13 19:25:00,68.1,65.9,30.30,SE,128,0.0,3.0,93,0.00,,,0.00,37,HR-IXPWINDi_r2_v1.2.,2013-07-13 23:25:00,
2013-07-13 19:30:00,68.2,66.0,30.30,East,101,1.0,3.0,93,0.00,,,0.00,40,HR-IXPWINDi_r2_v1.2.,2013-07-13 23:30:00,
2013-07-13 19:35:00,68.3,66.1,30.30,East,101,0.0,3.0,93,0.00,,,0.00,30,HR-IXPWINDi_r2_v1.2.,2013-07-13 23:35:00,
2013-07-13 19:40:00,68.2,66.0,30.30,East,94,1.0,3.0,93,0.00,,,0.00,23,HR-IXPWINDi_r2_v1.2.,2013-07-13 23:40:00,
2013-07-13 19:45:00,68.1,65.9,30.30,ESE,111,3.0,4.0,93,0.00,,,0.00,21,HR-IXPWINDi_r2_v1.2.,2013-07-13 23:45:00,
2013-07-13 19:50:00,67.9,65.7,30.30,ESE,118,0.0,4.0,93,0.00,,,0.00,19,HR-IXPWINDi_r2_v1.2.,2013-07-13 23:50:00,
2013-07-13 19:56:00,67.9,65.7,30.30,SE,140,0.0,4.0,93,0.00,,,0.00,18,HR-IXPWINDi_r2_v1.2.,2013-07-13 23:56:00,
2013-07-13 20:01:00,67.8,65.6,30.30,SE,140,1.0,3.0,93,0.00,,,0.00,16,HR-IXPWINDi_r2_v1.2.,2013-07-14 00:01:00,
2013-07-13 20:06:00,67.7,65.8,30.30,SE,140,1.0,3.0,94,0.00,,,0.00,9,HR-IXPWINDi_r2_v1.2.,2013-07-14 00:06:00,
2013-07-13 20:11:00,67.9,66.0,30.31,SE,140,1.0,3.0,94,0.00,,,0.00,5,HR-IXPWINDi_r2_v1.2.,2013-07-14 00:11:00,
2013-07-13 20:17:00,67.9,66.0,30.30,SE,140,1.0,2.0,94,0.00,,,0.00,0,HR-IXPWINDi_r2_v1.2.,2013-07-14 00:17:00,
2013-07-13 20:22:00,67.8,65.9,30.31,SE,140,0.0,1.0,94,0.00,,,0.00,0,HR-IXPWINDi_r2_v1.2.,2013-07-14 00:22:00,
2013-07-13 20:27:00,67.9,66.0,30.31,SE,140,0.0,2.0,94,0.00,,,0.00,0,HR-IXPWINDi_r2_v1.2.,2013-07-14 00:27:00,
2013-07-13 20:32:00,67.9,66.0,30.31,SE,140,0.0,2.0,94,0.00,,,0.00,0,HR-IXPWINDi_r2_v1.2.,2013-07-14 00:32:00,
2013-07-13 20:38:00,68.0,66.1,30.31,SE,140,0.0,2.0,94,0.00,,,0.00,0,HR-IXPWINDi_r2_v1.2.,2013-07-14 00:38:00,
2013-07-13 20:43:00,67.9,66.0,30.31,SE,140,0.0,2.0,94,0.00,,,0.00,0,HR-IXPWINDi_r2_v1.2.,2013-07-14 00:43:00,
2013-07-13 20:48:00,67.9,66.0,30.31,SE,140,0.0,2.0,94,0.00,,,0.00,0,HR-IXPWINDi_r2_v1.2.,2013-07-14 00:48:00,
2013-07-13 20:53:00,67.9,65.7,30.30,SE,140,0.0,0.0,93,0.00,,,0.00,0,HR-IXPWINDi_r2_v1.2.,2013-07-14 00:53:00,
2013-07-13 20:59:00,67.9,66.0,30.30,SE,140,3.0,3.0,94,0.00,,,0.00,0,HR-IXPWINDi_r2_v1.2.,2013-07-14 00:59:00,
2013-07-13 21:04:00,68.0,66.1,30.30,SE,140,1.0,3.0,94,0.00,,,0.00,0,HR-IXPWINDi_r2_v1.2.,2013-07-14 01:04:00,
2013-07-13 21:09:00,68.0,66.1,30.30,SE,140,1.0,3.0,94,0.00,,,0.00,0,HR-IXPWINDi_r2_v1.2.,2013-07-14 01:09:00,
2013-07-13 21:14:00,67.9,66.0,30.30,SE,140,0.0,3.0,94,0.00,,,0.00,0,HR-IXPWINDi_r2_v1.2.,2013-07-14 01:14:00,
2013-07-13 21:20:00,67.8,65.9,30.30,SE,140,0.0,2.0,94,0.00,,,0.00,0,HR-IXPWINDi_r2_v1.2.,2013-07-14 01:20:00,
2013-07-13 21:25:00,67.7,65.8,30.30,SE,140,1.0,1.0,94,0.00,,,0.00,0,HR-IXPWINDi_r2_v1.2.,2013-07-14 01:25:00,
2013-07-13 21:30:00,67.7,65.8,30.30,SE,140,0.0,1.0,94,0.00,,,0.00,0,HR-IXPWINDi_r2_v1.2.,2013-07-14 01:30:00,
2013-07-13 21:35:00,67.7,65.8,30.30,SE,140,0.0,1.0,94,0.00,,,0.00,0,HR-IXPWINDi_r2_v1.2.,2013-07-14 01:35:00,
2013-07-13 21:40:00,67.6,65.7,30.30,SE,140,3.0,3.0,94,0.00,,,0.00,0,HR-IXPWINDi_r2_v1.2.,2013-07-14 01:40:00,
2013-07-13 21:46:00,67.7,66.1,30.30,South,186,2.0,4.0,95,0.00,,,0.00,0,HR-IXPWINDi_r2_v1.2.,2013-07-14 01:46:00,
2013-07-13 21:51:00,67.7,66.1,30.29,SSW,195,4.0,4.0,95,0.00,,,0.00,0,HR-IXPWINDi_r2_v1.2.,2013-07-14 01:51:00,
2013-07-13 21:56:00,67.7,66.1,30.29,South,186,4.0,5.0,95,0.00,,,0.00,0,HR-IXPWINDi_r2_v1.2.,2013-07-14 01:56:00,
2013-07-13 22:01:00,67.7,66.1,30.29,SSE,161,3.0,5.0,95,0.00,,,0.00,0,HR-IXPWINDi_r2_v1.2.,2013-07-14 02:01:00,
2013-07-13 22:07:00,67.7,66.1,30.29,SSE,163,4.0,4.0,95,0.00,,,0.00,0,HR-IXPWINDi_r2_v1.2.,2013-07-14 02:07:00,
2013-07-13 22:12:00,67.7,66.1,30.29,SSE,161,0.0,4.0,95,0.00,,,0.00,0,HR-IXPWINDi_r2_v1.2.,2013-07-14 02:12:00,
2013-07-13 22:17:00,67.8,66.2,30.29,SSE,160,1.0,4.0,95,0.00,,,0.00,0,HR-IXPWINDi_r2_v1.2.,2013-07-14 02:17:00,
2013-07-13 22:22:00,67.9,66.3,30.29,SSE,163,3.0,4.0,95,0.00,,,0.00,0,HR-IXPWINDi_r2_v1.2.,2013-07-14 02:22:00,
2013-07-13 22:28:00,67.9,66.3,30.29,SSE,165,4.0,4.0,95,0.00,,,0.00,0,HR-IXPWINDi_r2_v1.2.,2013-07-14 02:28:00,
2013-07-13 22:33:00,67.9,66.3,30.30,SSE,165,0.0,4.0,95,0.00,,,0.00,0,HR-IXPWINDi_r2_v1.2.,2013-07-14 02:33:00,
2013-07-13 22:38:00,67.9,66.3,30.30,SSE,165,0.0,3.0,95,0.00,,,0.00,0,HR-IXPWINDi_r2_v1.2.,2013-07-14 02:38:00,
2013-07-13 22:43:00,67.9,66.3,30.29,SSE,165,0.0,1.0,95,0.00,,,0.00,0,HR-IXPWINDi_r2_v1.2.,2013-07-14 02:43:00,
2013-07-13 22:49:00,67.9,66.3,30.30,SSE,165,0.0,1.0,95,0.00,,,0.00,0,HR-IXPWINDi_r2_v1.2.,2013-07-14 02:49:00,
2013-07-13 22:54:00,67.9,66.3,30.29,SSE,165,0.0,1.0,95,0.00,,,0.00,0,HR-IXPWINDi_r2_v1.2.,2013-07-14 02:54:00,
2013-07-13 22:59:00,67.9,66.3,30.29,SSE,165,0.0,0.0,95,0.00,,,0.00,0,HR-IXPWINDi_r2_v1.2.,2013-07-14 02:59:00,
2013-07-13 23:04:00,67.8,66.2,30.29,SSE,165,0.0,0.0,95,0.00,,,0.00,0,HR-IXPWINDi_r2_v1.2.,2013-07-14 03:04:00,
2013-07-13 23:10:00,67.8,66.6,30.30,SSE,165,0.0,0.0,96,0.00,,,0.00,0,HR-IXPWINDi_r2_v1.2.,2013-07-14 03:10:00,
2013-07-13 23:15:00,67.9,66.3,30.30,SSE,165,0.0,1.0,95,0.00,,,0.00,0,HR-IXPWINDi_r2_v1.2.,2013-07-14 03:15:00,
2013-07-13 23:20:00,67.8,66.2,30.30,SSE,165,0.0,1.0,95,0.00,,,0.00,0,HR-IXPWINDi_r2_v1.2.,2013-07-14 03:20:00,
2013-07-13 23:25:00,67.8,66.2,30.30,SSE,165,1.0,2.0,95,0.00,,,0.00,0,HR-IXPWINDi_r2_v1.2.,2013-07-14 03:25:00,
2013-07-13 23:31:00,67.8,66.6,30.30,SSE,165,0.0,2.0,96,0.00,,,0.00,0,HR-IXPWINDi_r2_v1.2.,2013-07-14 03:31:00,
2013-07-13 23:36:00,67.7,66.1,30.30,SSE,165,0.0,1.0,95,0.00,,,0.00,0,HR-IXPWINDi_r2_v1.2.,2013-07-14 03:36:00,
2013-07-13 23:41:00,67.7,66.5,30.30,SSE,165,0.0,0.0,96,0.00,,,0.00,0,HR-IXPWINDi_r2_v1.2.,2013-07-14 03:41:00,
2013-07-13 23:46:00,67.8,66.6,30.30,SSE,165,0.0,0.0,96,0.00,,,0.00,0,HR-IXPWINDi_r2_v1.2.,2013-07-14 03:46:00,
2013-07-13 23:51:00,67.7,66.5,30.30,SSE,165,0.0,0.0,96,0.00,,,0.00,0,HR-IXPWINDi_r2_v1.2.,2013-07-14 03:51:00,
2013-07-13 23:57:00,67.7,66.5,30.30,SSE,165,0.0,0.0,96,0.00,,,0.00,0,HR-IXPWINDi_r2_v1.2.,2013-07-14 03:57:00,